{"data":{"norad_id":56058,"epoch":"2026-05-25T04:39:58.210272Z","epoch_age_seconds":51435,"freshness":"FRESH","line1":"1 56058U 23043N   26145.19442373 -.00000019  00000+0 -83239-4 0  9997","line2":"2 56058  87.9105 233.3461 0003292  95.8709 264.2797 13.16596628155939","mean_motion":13.16596628,"eccentricity":0.0003292,"inclination_deg":87.9105,"raan_deg":233.3461,"arg_perigee_deg":95.8709,"mean_anomaly_deg":264.2797,"bstar":-8.3239e-5,"rev_number":15593,"period_min":109.37290658168,"perigee_km":1195.253590498,"apogee_km":1200.2415529,"semimajor_km":7575.884571699,"source":"CELESTRAK","updated_at":"2026-05-25T13:38:22.702360Z"}}